Flint, MI

7:13 PM EDT on March 23, 2017 (GMT -0400)
Bishop International

Weather History for KFNT - September, 2012

Change the Weather History Date:

Wednesday, September 12, 2012

  Actual Average Record
Temperature  
Mean Temperature 72 °F 63 °F  
Max Temperature 83 °F 74 °F 94 °F (1931)
Min Temperature 60 °F 51 °F 34 °F (1964)
Degree Days  
Heating Degree Days 0 4  
Month to date heating degree days 17 35  
Since 1 July heating degree days 28 79  
Cooling Degree Days 7 2  
Month to date cooling degree days 58 29  
Year to date cooling degree days 846 506  
Growing Degree Days 21 (Base 50)    
Moisture  
Dew Point 53 °F    
Average Humidity 55    
Maximum Humidity 73    
Minimum Humidity 37    
Precipitation  
Precipitation 0.00 in 0.12 in 1.04 in (1925)
Month to date precipitation 1.69 1.45  
Year to date precipitation 23.41 22.01  
Snow  
Snow 0.00 in 0.00 in T in ()
Month to date snowfall 0.0 0.0  
Since 1 July snowfall 0.0 0.0  
Since 1 September snowfall 0.0 0.0  
Snow Depth 0.00 in    
Sea Level Pressure  
Sea Level Pressure 30.18 in    
Wind  
Wind Speed 7 mph (SSW)    
Max Wind Speed 16 mph    
Max Gust Speed 21 mph    
Visibility 10 miles    
Events      
T = Trace of Precipitation, MM = Missing Value Source: NWS Daily Summary

Daily Weather History Graph

Daily Weather History Graph

Search for Another Location

Airport or City:

Trip Planner

Search our weather history database for the weather conditions in past years. The results will help you decide how hot, cold, wet, or windy it might be!

Date:

Astronomy

Sep. 12, 2012 Rise Set
Actual Time 7:11 AM EDT 7:49 PM EDT
Civil Twilight 6:43 AM EDT 8:17 PM EDT
Nautical Twilight 6:09 AM EDT 8:51 PM EDT
Astronomical Twilight 5:34 AM EDT 9:26 PM EDT
Moon 3:23 AM EDT (9/12) 5:40 PM EDT (9/12)
Length of Visible Light 13h 34m
Length of Day
12h 37m
Waning Crescent, 14% of the Moon is Illuminated
Sep 12
Waning Crescent
Sep 15
New
Sep 22
First Quarter
Sep 29
Full
Oct 8
Last Quarter

Hourly Weather History & Observations

Time (EDT) Temp. Heat Index Dew Point Humidity Pressure Visibility Wind Dir Wind Speed Gust Speed Precip Events Conditions
12:53 AM 64.9 °F - 51.1 °F 61% 30.16 in 10.0 mi SSW 5.8 mph - N/A   Clear
1:53 AM 64.0 °F - 50.0 °F 60% 30.16 in 10.0 mi South 5.8 mph - N/A   Clear
2:53 AM 64.0 °F - 51.1 °F 63% 30.16 in 10.0 mi South 4.6 mph - N/A   Clear
3:53 AM 63.0 °F - 51.1 °F 65% 30.17 in 10.0 mi South 6.9 mph - N/A   Clear
4:53 AM 61.0 °F - 51.1 °F 70% 30.17 in 10.0 mi SSW 5.8 mph - N/A   Clear
5:53 AM 62.1 °F - 50.0 °F 65% 30.18 in 10.0 mi SSW 8.1 mph - N/A   Clear
6:53 AM 62.1 °F - 50.0 °F 65% 30.20 in 10.0 mi SSW 9.2 mph - N/A   Clear
7:53 AM 63.0 °F - 50.0 °F 63% 30.21 in 10.0 mi SSW 6.9 mph - N/A   Clear
8:53 AM 66.0 °F - 52.0 °F 60% 30.21 in 10.0 mi SSW 6.9 mph - N/A   Clear
9:53 AM 70.0 °F - 55.0 °F 59% 30.21 in 10.0 mi SSW 6.9 mph - N/A   Clear
10:53 AM 73.9 °F - 55.9 °F 53% 30.21 in 10.0 mi SW 8.1 mph - N/A   Clear
11:53 AM 77.0 °F - 57.0 °F 50% 30.20 in 10.0 mi SW 10.4 mph - N/A   Clear
12:53 PM 79.0 °F - 57.0 °F 47% 30.19 in 10.0 mi SW 11.5 mph - N/A   Clear
1:53 PM 81.0 °F 80.8 °F 55.9 °F 42% 30.17 in 10.0 mi Variable 6.9 mph 17.3 mph N/A   Clear
2:53 PM 82.0 °F 81.4 °F 55.0 °F 39% 30.16 in 10.0 mi SSW 10.4 mph 18.4 mph N/A   Clear
3:53 PM 82.9 °F 82.0 °F 55.0 °F 38% 30.15 in 10.0 mi SW 10.4 mph - N/A   Clear
4:53 PM 82.9 °F 81.8 °F 53.1 °F 36% 30.14 in 10.0 mi SSW 9.2 mph - N/A   Clear
5:53 PM 82.0 °F 81.3 °F 54.0 °F 38% 30.14 in 10.0 mi South 10.4 mph - N/A   Clear
6:53 PM 80.1 °F 80.0 °F 54.0 °F 40% 30.14 in 10.0 mi South 8.1 mph - N/A   Clear
7:53 PM 75.0 °F - 55.0 °F 50% 30.15 in 10.0 mi South 5.8 mph - N/A   Clear
8:53 PM 73.4 °F - 53.6 °F 50% 30.18 in 10.0 mi SSW 5.8 mph - N/A   Clear
9:53 PM 71.1 °F - 54.0 °F 55% 30.19 in 10.0 mi SSW 3.5 mph - N/A   Clear
10:53 PM 68.0 °F - 55.0 °F 63% 30.18 in 10.0 mi South 3.5 mph - N/A   Clear
11:53 PM 64.9 °F - 55.0 °F 70% 30.19 in 10.0 mi South 5.8 mph - N/A   Clear